Location: Felsheim
(48.7267°N, 10.7386°E)
Time: 06:01:15
(UTC+00:00)

ERBS - Pass Details

Date: 09 April 2020
Orbit: 410 x 426 km, 57.0° (Epoch: 29 May)

Event Time Altitude Azimuth Distance (km) Brightness Sun altitude
Rises 20:09:34 0° 303° (WNW) 2,396 7.7 -19.8°
Reaches altitude 10° 20:11:41 10° 299° (WNW) 1,527 6.2 -20.1°
Enters shadow 20:14:57 54° 228° (SW) 528 2.7 -20.5°
